Date,TemperatureHighF,TemperatureAvgF,TemperatureLowF,DewpointHighF,DewpointAvgF,DewpointLowF,HumidityHigh,HumidityAvg,HumidityLow,PressureMaxIn,PressureMinIn,WindSpeedMaxMPH,WindSpeedAvgMPH,GustSpeedMaxMPH,PrecipitationSumIn
2013-1-1,29,17,6,19,12,2,90,80,61,30.29,30.15,5,1,8,0.00
2013-1-2,35,24,8,25,18,4,89,77,60,30.33,30.15,6,2,13,0.01
2013-1-3,29,21,9,18,14,4,84,73,56,30.41,30.29,5,1,12,0.01
2013-1-4,39,20,9,20,11,4,84,69,45,30.30,30.10,4,1,8,0.00
2013-1-5,42,24,10,26,16,5,83,71,50,30.32,30.04,7,2,17,0.00
2013-1-6,44,25,13,24,17,9,84,72,41,30.33,29.98,3,0,10,0.00
2013-1-7,45,29,18,25,20,14,86,70,40,30.04,29.90,3,0,8,0.00
2013-1-8,49,28,13,31,20,9,87,75,46,30.22,29.82,6,1,12,0.00
2013-1-9,54,34,16,29,23,12,90,69,35,30.39,30.21,6,1,13,0.00
2013-1-10,38,35,33,32,29,24,93,79,60,30.21,29.52,3,0,8,0.00
2013-1-11,36,29,15,33,26,9,94,89,75,29.86,29.30,7,2,17,0.01
2013-1-12,17,10,3,9,3,-2,79,71,60,30.26,29.86,8,4,17,0.01
2013-1-13,19,7,-2,7,0,-7,81,73,56,30.42,30.26,6,2,12,0.00
2013-1-14,23,10,-2,11,3,-6,84,72,50,30.52,30.37,4,1,10,0.00
2013-1-15,29,17,0,16,8,-4,87,70,44,30.37,30.08,7,1,13,0.00
2013-1-16,51,36,25,27,24,19,80,63,38,30.28,30.05,8,3,17,0.00
2013-1-17,51,33,21,24,21,17,84,63,31,30.45,30.18,5,1,9,0.00
2013-1-18,58,37,22,22,19,17,83,53,21,30.18,29.91,7,2,14,0.00
2013-1-19,56,36,25,23,20,17,78,55,22,30.24,29.91,8,1,18,0.00
2013-1-20,36,23,15,26,17,9,89,77,61,30.43,30.17,4,1,13,0.00
2013-1-21,26,18,10,15,12,6,85,74,59,30.42,30.25,5,1,10,0.00
2013-1-22,36,20,10,18,12,6,85,74,48,30.28,30.16,3,0,6,0.00
2013-1-23,40,23,14,22,14,7,86,69,45,30.42,30.17,5,1,11,0.00
2013-1-24,26,15,4,16,8,-1,83,74,61,30.44,30.09,3,1,10,0.00
2013-1-25,55,32,17,24,19,13,84,62,28,30.30,30.11,5,1,13,0.00
2013-1-26,54,40,28,33,26,20,79,59,38,30.11,29.78,5,1,12,0.00
2013-1-27,51,39,31,43,36,28,94,87,70,29.78,29.61,6,1,9,0.11
2013-1-28,39,32,26,38,30,24,95,92,86,29.73,29.56,3,1,11,0.02
2013-1-29,34,30,26,28,26,21,91,84,75,29.83,29.65,4,2,10,0.02
2013-1-30,31,23,13,23,14,6,84,68,47,29.96,29.82,9,3,15,0.01
2013-1-31,19,15,12,13,2,-1,77,56,43,30.36,29.88,6,2,17,0.00